Regional Weather Roundup
Issued by NWS

Home | Current Version | Previous Version | Graphics & Text | Print | Product List | Glossary On
Versions: 1 2 3 4 5 6 7 8 9 10 11 12 13 14 15 16 17 18 19 20 21 22 23 24 25 26 27 28 29 30 31 32 33 34 35 36 37 38 39 40 41 42 43 44 45 46 47 48 49 50
296
ASUS43 KLSX 201457
RWRMO

WEATHER SUMMARY FOR MISSOURI
NATIONAL WEATHER SERVICE SPRINGFIELD MO
1000 AM CDT FRI APR 20 2018

NOTE: "FAIR" INDICATES FEW OR NO CLOUDS BELOW 12,000 FEET WITH NO
       SIGNIFICANT WEATHER AND/OR OBSTRUCTIONS TO VISIBILITY.
       CURRENT SKY AND/OR WEATHER CONDITIONS ARE NOT AVAILABLE FOR
       CHILLICOTHE AND FARMINGTON.

MOZ001>031-035>038-043-044-053-054-201600-
...NORTHERN AND WESTERN MISSOURI...

CITY           SKY/WX    TMP DP  RH WIND       PRES   REMARKS
KANSAS CTY INT PTSUNNY   52  31  44 SE14      30.44F
LEE`S SUMMIT   SUNNY     51  33  50 SE12      30.44F
ST JOSEPH      MOSUNNY   52  32  46 SE10      30.44F
CHILLICOTHE      N/A     52  30  43 SE9       30.49F

$$
MOZ066>068-077>081-088>096-101>105-201600-
...SOUTHWEST MISSOURI...

CITY           SKY/WX    TMP DP  RH WIND       PRES   REMARKS
SPRINGFIELD    SUNNY     52  31  44 E14G24    30.42F
JOPLIN         SUNNY     52  34  50 E15G23    30.39F

$$
MOZ032>034-039>042-045>050-055>058-069>072-201600-
...CENTRAL MISSOURI...

CITY           SKY/WX    TMP DP  RH WIND       PRES   REMARKS
COLUMBIA       NOT AVBL
JEFFERSON CITY SUNNY     52  29  41 E13       30.49F
ROLLA          SUNNY     49  28  44 E9        30.47S
SEDALIA        SUNNY     52  32  46 SE16      30.47F
WARRENSBURG    SUNNY     52  32  46 E9        30.45F

$$
MOZ051-052-059>065-201600-
...EAST CENTRAL MISSOURI...

CITY           SKY/WX    TMP DP  RH WIND       PRES   REMARKS
ST LOUIS INTL  MOSUNNY   52  17  25 E14       30.50F

$$
MOZ072>076-082>087-097>100-106>115-201600-
...SOUTH CENTRAL AND SOUTHEAST MISSOURI...

CITY           SKY/WX    TMP DP  RH WIND       PRES   REMARKS
CAPE GIRARDEAU FAIR      52  25  35 NE12      30.47S
POPLAR BLUFF   FAIR      53  26  35 NE13      30.46S
WEST PLAINS    SUNNY     51  26  37 E14       30.45S

$$




USA.gov is the U.S. government's official web portal to all federal, state and local government web resources and services.